Weather History for St. Cloud, MN

Change the Weather History Date:

Sunday, May 4, 2014

  Actual Average Record
Temperature  
Mean Temperature 46 °F 53 °F  
Max Temperature 59 °F 65 °F 92 °F (1952)
Min Temperature 33 °F 40 °F 19 °F (1967)
Degree Days  
Heating Degree Days 19 13  
Month to date heating degree days 69 53  
Since 1 July heating degree days 9301 8220  
Cooling Degree Days 0 0  
Month to date cooling degree days 0 0  
Year to date cooling degree days 0 2  
Moisture  
Dew Point 26 °F    
Average Humidity 51    
Maximum Humidity 75    
Minimum Humidity 27    
Precipitation  
Precipitation 0.00 in 0.10 in 0.99 in (1912)
Month to date precipitation 0.13 0.39  
Year to date precipitation 9.74 5.75  
Snow  
Snow 0.00 in 0.00 in 0.30 in (1979)
Month to date snowfall 0.0 0.0  
Since 1 July snowfall 75.5 45.7  
Snow Depth 0.00 in    
Sea Level Pressure  
Sea Level Pressure 30.09 in    
Wind  
Wind Speed 5 mph (NNE)    
Max Wind Speed 13 mph    
Max Gust Speed 18 mph    
Visibility 10 miles    
Events      
T = Trace of Precipitation, MM = Missing Value Source: NWS Daily Summary

Daily Weather History Graph

Daily Weather History Graph

Search for Another Location

Airport:

Trip Planner

Search our weather history database for the weather conditions in past years. The results will help you decide how hot, cold, wet, or windy it might be!

Date:

Astronomy

May. 04, 2014 Rise Set
Actual Time 5:59 AM CDT 8:27 PM CDT
Civil Twilight 5:26 AM CDT 9:00 PM CDT
Nautical Twilight 4:45 AM CDT 9:41 PM CDT
Astronomical Twilight 3:58 AM CDT 10:29 PM CDT
Moon 10:23 AM CDT (5/4) 12:34 AM CDT (5/4)
Length of Visible Light 15h 33m
Length of Day
14h 27m
Waxing Crescent, 28% of the Moon is Illuminated
May 4
Waxing Crescent
May 6
First Quarter
May 14
Full
May 21
Last Quarter
May 28
New

Hourly Weather History & Observations

Time (CDT) Temp. Windchill Dew Point Humidity Pressure Visibility Wind Dir Wind Speed Gust Speed Precip Events Conditions
12:53 AM 42.1 °F 36.1 °F 27.0 °F 55% 30.05 in 10.0 mi NNW 10.4 mph - N/A   Clear
1:53 AM 39.9 °F 33.9 °F 27.0 °F 60% 30.08 in 10.0 mi NNW 9.2 mph 16.1 mph N/A   Clear
2:53 AM 37.0 °F 33.3 °F 26.1 °F 65% 30.09 in 10.0 mi NNW 4.6 mph - N/A   Clear
3:53 AM 36.0 °F 31.1 °F 27.0 °F 70% 30.11 in 10.0 mi NW 5.8 mph - N/A   Clear
4:53 AM 33.1 °F 30.0 °F 26.1 °F 75% 30.10 in 10.0 mi NNW 3.5 mph - N/A   Clear
5:53 AM 34.0 °F 31.0 °F 27.0 °F 75% 30.12 in 10.0 mi NNW 3.5 mph - N/A   Clear
6:53 AM 33.1 °F 30.0 °F 27.0 °F 78% 30.14 in 10.0 mi NW 3.5 mph - N/A   Clear
7:53 AM 39.0 °F 33.4 °F 28.0 °F 65% 30.17 in 10.0 mi North 8.1 mph - N/A   Clear
8:53 AM 42.1 °F 38.4 °F 27.0 °F 55% 30.17 in 10.0 mi NNE 5.8 mph - N/A   Clear
9:53 AM 45.0 °F 41.8 °F 26.1 °F 48% 30.17 in 10.0 mi NE 5.8 mph - N/A   Clear
10:53 AM 46.9 °F - 27.0 °F 46% 30.16 in 10.0 mi Variable 3.5 mph - N/A   Clear
11:53 AM 50.0 °F - 26.1 °F 39% 30.14 in 10.0 mi NNE 6.9 mph - N/A   Clear
12:53 PM 52.0 °F - 25.0 °F 35% 30.12 in 10.0 mi ENE 8.1 mph - N/A   Clear
1:53 PM 54.0 °F - 25.0 °F 33% 30.11 in 10.0 mi Variable 6.9 mph - N/A   Clear
2:53 PM 55.9 °F - 23.0 °F 28% 30.09 in 10.0 mi Calm Calm - N/A   Clear
3:53 PM 57.0 °F - 24.1 °F 28% 30.06 in 10.0 mi East 5.8 mph - N/A   Clear
4:53 PM 57.9 °F - 27.0 °F 31% 30.04 in 10.0 mi East 8.1 mph - N/A   Mostly Cloudy
5:53 PM 55.9 °F - 24.1 °F 29% 30.04 in 10.0 mi ENE 6.9 mph - N/A   Clear
6:53 PM 55.0 °F - 23.0 °F 29% 30.03 in 10.0 mi ENE 4.6 mph - N/A   Clear
7:53 PM 54.0 °F - 24.1 °F 31% 30.03 in 10.0 mi ENE 4.6 mph - N/A   Partly Cloudy
8:53 PM 53.1 °F - 27.0 °F 37% 30.03 in 10.0 mi Calm Calm - N/A   Scattered Clouds
9:53 PM 52.0 °F - 28.0 °F 40% 30.05 in 10.0 mi Calm Calm - N/A   Mostly Cloudy
10:53 PM 51.1 °F - 30.9 °F 46% 30.05 in 10.0 mi Calm Calm - N/A   Overcast
11:53 PM 51.1 °F - 30.9 °F 46% 30.03 in 10.0 mi NE 3.5 mph - N/A   Overcast